Profile of Voice Seeker 87172

These are the public details of this voice seeker.

87172
Confidential (why?)
2013-02-20

89 projects

1 projects
213

87.66%
During the past 48 hours
• A Voice123 Team member HAS NOT spoken over the phone to this voice-seeker about his/her projects, messages, or invitations.
• A Voice123 Team member HAS NOT communicated via email with this voice-seeker about his/her projects, messages, or invitations.
List of Projects Posted with Voice123's SmartCast Enabled:
ID Name Posted Deadline Auditions/
Proposals Received
% of Auditions/
Proposals
Opened
ZD3708760 Brightwell 2017-08-17 18:35:51 GMT 2017-08-22 14:00:00 GMT 20 100.00%
ZD2788183 ULTIMATE SOFTWARE SALES PROFILER 2017-06-09 22:29:33 GMT 2017-06-14 14:00:00 GMT 26 100.00%
ZD2731986 This Is Why World Oceans Day 2017-06-07 00:46:54 GMT 2017-06-09 20:00:00 GMT 29 65.52%
ZD2726819 Ingenico Services 2017-06-06 19:10:45 GMT 2017-06-09 15:00:00 GMT 15 73.33%
ZD2614966 Ingenico Services 2017-05-31 23:01:01 GMT 2017-06-05 18:00:00 GMT 16 68.75%
ZD2614252 This Is Why World Oceans Day 2017-05-31 21:08:35 GMT 2017-06-06 19:43:49 GMT 22 95.45%
ZD2551938 WinField United Promo Videos 2017-05-24 18:15:03 GMT 2017-05-31 22:00:00 GMT 10 100.00%
ZD2502587 Chick fil a True Inspiration Awards 2017-05-16 21:25:44 GMT 2017-05-19 18:00:00 GMT 18 94.44%
ZD2493682 Contractor Connection Opening Video 2017-05-15 21:19:12 GMT 2017-05-19 17:00:00 GMT 25 100.00%
ZD2449410 Mercedes Benz Stadium Training 2017-05-10 20:11:32 GMT 2017-05-15 15:00:00 GMT 30 86.67%
ZD2368620 Ultimate Software POV 2017-05-02 00:02:55 GMT 2017-05-04 15:00:00 GMT 7 100.00%
ZD2329777 Georgia Aquarium Dolphin Research 2017-04-29 00:35:32 GMT 2017-05-01 20:00:00 GMT 12 75.00%
ZD2313692 Ultimate Software HR 2017-04-27 19:13:45 GMT 2017-05-01 15:00:00 GMT 17 100.00%
ZD2257078 Sports App Promo 2017-04-17 23:03:34 GMT 2017-04-21 18:00:00 GMT 11 100.00%
ZD2203884 Brand Champ Inspiring Smiles 2017-04-06 00:57:45 GMT 2017-04-10 20:00:00 GMT 16 100.00%
ZD2167952 Brand Champ Movie Trailer 2017-03-29 00:38:30 GMT 2017-04-07 20:00:00 GMT 25 56.00%
ZD2055699 White and Hodge 2017-03-03 23:56:55 GMT 2017-03-13 18:00:00 GMT 18 100.00%
ZD2055508 Heat Transfer Videos 2017-03-03 23:09:40 GMT 2017-03-08 18:00:00 GMT 19 100.00%
ZD1821455 Alabama Power 2017-01-11 01:19:20 GMT 2017-01-12 20:00:00 GMT 28 39.29%
ZD1816257 Summit State Recognition Awards 2017-01-09 22:18:55 GMT 2017-01-11 15:00:00 GMT 19 63.16%
ZD1670280 CFP National Championship 2016-12-08 03:09:36 GMT 2016-12-12 15:00:00 GMT 25 100.00%
ZD1668856 CFP National Championship 2016-12-07 19:58:51 GMT 2016-12-12 15:00:00 GMT 10 100.00%
ZD1490794 Aquarium Development Video 2016-10-28 18:53:03 GMT 2016-11-01 17:00:00 GMT 16 100.00%
ZD1409684 Piedmont Healthcare 2016-10-10 21:24:57 GMT 2016-10-14 17:00:00 GMT 26 100.00%
ZD1270585 Lost Passions 2016-09-09 23:07:47 GMT 2016-09-13 19:00:00 GMT 25 100.00%
ZD1135559 Brand Anthem 2016-08-10 19:00:37 GMT 2016-08-15 14:00:00 GMT 22 100.00%
ZD943397 Cold Storage 2016-06-28 21:52:37 GMT 2016-07-01 17:00:00 GMT 25 100.00%
ZD845633 Opening Video 2016-06-07 02:18:03 GMT 2016-06-10 19:00:00 GMT 25 88.00%
ZD845391 Interactive Video 2016-06-07 01:07:28 GMT 2016-06-10 17:00:00 GMT 25 80.00%
ZD692150 GA Power OCC Revolution 2016-05-03 04:13:43 GMT 2016-05-06 16:00:00 GMT 24 100.00%
ZD689555 TSYS Unlocking payment opportunities 2016-04-18 20:55:30 GMT 2016-04-22 16:00:00 GMT 25 92.00%
ZD683643 American Fallen Soldier Tribute 2016-03-17 23:58:58 GMT 2016-03-22 19:00:00 GMT 14 85.71%
ZD683148 Biobased Xorel 2016-03-15 20:14:02 GMT 2016-03-18 19:00:00 GMT 17 100.00%
ZD681060 GA Aquarium Dolphin Research 2016-03-03 20:07:35 GMT 2016-03-05 15:00:00 GMT 20 60.00%
ZD680654 Logans 25th Anniversary Sizzle 2016-03-01 21:37:10 GMT 2016-03-04 16:00:00 GMT 25 100.00%
ZD680219 Aarons True Blue Show Teaser 2016-02-27 00:58:17 GMT 2016-03-01 18:06:34 GMT 25 96.00%
ZD678317 Aarons National Managers Meeting Opening Video 2016-02-17 02:52:48 GMT 2016-02-19 15:00:00 GMT 22 100.00%
ZD674010 Neenah Paper Mill Tours 2016-01-20 03:03:43 GMT 2016-01-22 15:00:00 GMT 20 100.00%
ZD669703 GA Power Smart Usage 2015-12-10 22:21:02 GMT 2015-12-14 17:00:00 GMT 21 100.00%
ZD624149 Joint Replacement 2015-10-30 21:34:01 GMT 2015-11-03 16:00:00 GMT 9 100.00%
ZD600722 Sea Otter Awareness Week 2015-09-10 00:07:01 GMT 2015-09-10 17:26:48 GMT 16 100.00%
ZD600703 So Much More 2015-09-09 23:03:15 GMT 2015-09-14 19:00:00 GMT 25 100.00%
ZD598410 Colorize Your Classroom Challenge 2015-08-27 19:16:57 GMT 2015-09-01 14:00:00 GMT 16 100.00%
ZD597132 ParkMobile 2015-08-17 20:56:10 GMT 2015-08-24 20:42:25 GMT 15 100.00%
ZD595417 True Inspirations 2015-08-04 01:42:09 GMT 2015-08-06 17:00:00 GMT 5 100.00%
ZD593962 True Inspirations 2015-07-23 19:20:07 GMT 2015-07-29 17:00:00 GMT 17 100.00%
ZD571245 Joint Replacement 2015-06-18 20:27:50 GMT 2015-06-22 17:00:00 GMT 28 100.00%
ZD479722 WinField Play Big 2015-05-26 18:47:13 GMT 2015-05-29 17:00:00 GMT 19 100.00%
ZD427491 Dos Equis Spoof 2015-05-12 00:34:07 GMT 2015-05-13 17:00:00 GMT 25 100.00%
ZD427421 Real Men of Genius 2015-05-12 00:25:24 GMT 2015-05-13 17:00:00 GMT 24 100.00%
ZD412231 World Oceans Day 2015-05-07 02:34:14 GMT 2015-05-12 17:00:00 GMT 20 100.00%
ZD390694 Next Alarm 2015-04-30 00:14:33 GMT 2015-05-04 15:00:00 GMT 20 100.00%
ZD384106 ATT Fleet Management 2015-04-27 19:28:46 GMT 2015-04-28 17:00:00 GMT 5 100.00%
ZD241246 Aarons Show Opener 2015-02-25 00:06:19 GMT 2015-02-26 18:00:00 GMT 21 100.00%
ZD223946 Arbys Brand Champs 2015-02-10 22:54:34 GMT 2015-02-12 17:00:00 GMT 20 100.00%
ZD200249 Coffee Helping Missions 2015-01-20 02:35:30 GMT 2015-01-21 17:00:00 GMT 17 100.00%
ZD195805 American Fallen Soldiers HBS 2015-01-14 02:57:42 GMT 2015-01-14 17:00:00 GMT 13 100.00%
ZD192351 American Fallen Soldier Project 2015-01-09 21:29:31 GMT 2015-01-13 16:00:00 GMT 20 100.00%
ZD189861 PureCars Case Study 2015-01-06 22:59:00 GMT 2015-01-08 17:00:00 GMT 36 100.00%
ZD174393 Party With The Penguins 2014-12-16 02:22:21 GMT 2014-12-17 17:00:00 GMT 38 100.00%
ZD159093 Asthma Training 2014-11-22 04:12:26 GMT 2014-11-24 17:00:00 GMT 16 100.00%
ZD155101 Child Travel Systems Instructions 2014-11-07 04:16:08 GMT 2014-11-07 16:00:00 GMT 11 90.91%
ZD151546 Kyckster Typography 2014-10-11 02:29:47 GMT 2014-10-12 16:00:00 GMT 14 100.00%
ZD151542 Atlanta Hospitality Member of the Year 2014-10-10 23:10:54 GMT 2014-10-12 15:00:00 GMT 10 100.00%
ZD151541 Atlanta Hospitality Hall of Fame 2014-10-10 23:04:27 GMT 2014-10-12 15:00:00 GMT 8 100.00%
ZD147507 No Kid Hungry 2014-09-12 02:00:52 GMT 2014-09-15 01:00:00 GMT 39 100.00%
ZD147509 Wilbert Group 2014-09-12 02:02:37 GMT 2014-09-15 01:00:00 GMT 20 100.00%
ZD145268 Agility WinField 2014-08-28 00:29:03 GMT 2014-08-29 16:00:00 GMT 13 100.00%
ZD145112 Agility 2014-08-27 03:36:50 GMT 2014-08-28 16:00:00 GMT 10 100.00%
ZD144314 ACL 2014-08-20 22:18:03 GMT 2014-08-22 17:00:00 GMT 31 100.00%
ZD142630 Campaign Video 2014-08-08 02:25:02 GMT 2014-08-08 20:17:12 GMT 11 63.64%
ZD138123 Thermostat 2014-07-23 01:26:43 GMT 2014-07-23 14:00:00 GMT 9 100.00%
ZD120234 Brand Camp Training 2014-05-02 22:54:11 GMT 2014-05-05 20:00:00 GMT 13 84.62%
ZD119681 Ultimate Field Trip 2014-04-30 21:14:38 GMT 2014-05-02 20:23:31 GMT 24 100.00%
ZD118617 Internal Brand Launch 2014-04-26 01:50:34 GMT 2014-04-28 17:00:00 GMT 24 100.00%
ZD108201 Open and Close Meeting Videos 2014-03-12 21:29:12 GMT 2014-03-13 21:00:00 GMT 30 100.00%
ZD107283 HBS Dog Spoof 2014-03-08 01:03:40 GMT 2014-03-10 15:00:00 GMT 13 100.00%
ZD99820 Georgia Tech Alumni Association 2014-02-05 03:05:33 GMT 2014-02-06 02:00:00 GMT 1 100.00%
ZD99184 Georgia Tech 2014-02-03 21:50:11 GMT 2014-02-06 00:00:00 GMT 32 100.00%
ZD96781 IOU Central 2014-01-24 16:12:35 GMT 2014-01-28 21:00:00 GMT 8 100.00%
ZD92732 Awards Voiceover 2014-01-08 20:49:35 GMT 2014-01-09 21:00:00 GMT 25 100.00%
ZD88323 Brand Experience 2013-12-18 20:27:36 GMT 2013-12-19 22:00:00 GMT 11 90.91%
ZD84265 UM Holiday Card 2013-12-06 15:11:38 GMT 2013-12-06 15:45:05 GMT 0 N/A
ZD84278 UM Holiday Card 2013-12-06 15:51:08 GMT 2013-12-07 10:00:00 GMT 0 N/A
ZD83432 Holiday Card 2013-12-04 21:35:02 GMT 2013-12-06 14:58:47 GMT 0 N/A
ZD62335 LS Infographic 2013-10-16 16:00:19 GMT 2013-10-17 20:00:00 GMT 0 N/A
ZD54124 Power Grid Updates 2013-10-01 20:45:24 GMT 2013-10-01 20:45:40 GMT 0 N/A
ZD54125 Power Grid Updates 2013-10-01 20:46:21 GMT 2013-10-02 20:00:00 GMT 0 N/A
ZDLTK12138036889611X Brand Launch 2013-09-30 21:30:14 GMT 2013-10-01 20:00:00 GMT 0 N/A

Note: Although Voice123 tries to establish the legitimacy of all voice seekers, you are responsible for conducting your own investigation into any and all claims made by prospective voice seekers, agents and/or clients. You assume all liability for use of any information you find through Voice123, or any of its publications.